TimeEDT,TemperatureF,Dew PointF,Humidity,Sea Level PressureIn,VisibilityMPH,Wind Direction,Wind SpeedMPH,Gust SpeedMPH,PrecipitationIn,Events,Conditions,WindDirDegrees,DateUTC
12:53 AM,77.0,73.9,90,30.01,10.0,East,4.6,-,0.00,,Clear,90,2012-09-20 04:53:00
1:53 AM,77.0,75.0,94,30.00,10.0,Calm,Calm,-,N/A,,Clear,0,2012-09-20 05:53:00
2:53 AM,78.1,75.0,90,29.99,10.0,Calm,Calm,-,N/A,,Scattered Clouds,0,2012-09-20 06:53:00
3:53 AM,77.0,75.0,94,29.99,10.0,Calm,Calm,-,N/A,,Clear,0,2012-09-20 07:53:00
4:53 AM,77.0,75.0,94,29.99,10.0,Calm,Calm,-,N/A,,Clear,0,2012-09-20 08:53:00
5:53 AM,77.0,75.0,94,29.98,10.0,East,5.8,-,N/A,,Clear,100,2012-09-20 09:53:00
6:53 AM,75.9,73.9,94,29.96,10.0,East,8.1,-,N/A,,Clear,90,2012-09-20 10:53:00
7:53 AM,77.0,75.0,94,30.00,10.0,Calm,Calm,-,N/A,,Clear,0,2012-09-20 11:53:00
8:53 AM,78.8,73.4,83,30.02,10.0,Calm,Calm,-,N/A,,Clear,0,2012-09-20 12:53:00
9:53 AM,81.0,73.9,79,30.03,10.0,Calm,Calm,-,N/A,,Clear,0,2012-09-20 13:53:00
10:53 AM,82.9,73.9,74,30.02,10.0,Calm,Calm,-,N/A,,Clear,0,2012-09-20 14:53:00
11:53 AM,84.0,73.9,72,30.02,10.0,Calm,Calm,-,N/A,,Partly Cloudy,0,2012-09-20 15:53:00
12:53 PM,84.9,73.0,67,30.01,10.0,NNE,4.6,-,N/A,,Mostly Cloudy,20,2012-09-20 16:53:00
1:03 PM,84.2,73.4,70,30.01,10.0,NE,4.6,-,N/A,,Scattered Clouds,40,2012-09-20 17:03:00
1:53 PM,86.0,72.0,63,29.99,10.0,Variable,4.6,-,N/A,,Scattered Clouds,0,2012-09-20 17:53:00
2:53 PM,87.1,71.1,59,29.97,10.0,Calm,Calm,-,N/A,,Mostly Cloudy,0,2012-09-20 18:53:00
3:53 PM,86.0,75.0,70,29.95,10.0,West,9.2,-,N/A,,Scattered Clouds,270,2012-09-20 19:53:00
4:53 PM,87.1,73.9,65,29.94,10.0,North,8.1,-,N/A,,Partly Cloudy,360,2012-09-20 20:53:00
5:53 PM,87.1,73.0,63,29.93,10.0,NNW,5.8,-,N/A,,Clear,340,2012-09-20 21:53:00
6:53 PM,84.0,72.0,67,29.96,10.0,North,4.6,-,N/A,,Clear,350,2012-09-20 22:53:00
7:53 PM,82.0,72.0,71,29.98,10.0,North,3.5,-,N/A,,Clear,10,2012-09-20 23:53:00
8:53 PM,81.0,71.1,72,29.99,10.0,ESE,8.1,-,N/A,,Partly Cloudy,120,2012-09-21 00:53:00
9:53 PM,79.0,71.1,77,30.01,10.0,SSE,4.6,-,N/A,,Mostly Cloudy,150,2012-09-21 01:53:00
10:53 PM,78.1,70.0,76,30.02,10.0,East,6.9,-,N/A,,Overcast,80,2012-09-21 02:53:00
11:53 PM,75.0,71.1,87,30.01,10.0,Calm,Calm,-,N/A,,Scattered Clouds,0,2012-09-21 03:53:00